LKKB Weather Reports


time (UTC)temp
F
wind
direction
speed
knots
gust
knots
rain 1hr
in
rain 24hr
in
rain mn
in
humidity
%
barometer
mb
20260904203102 72 360 7.8 0.0 0.00 0.00 0.00 60 1011.0
20260904201911 75 220 10.4 0.0 0.00 0.00 0.00 57
20260904193802 73 230 7.8 0.0 0.00 0.00 0.00 60 1011.0
20260904192157 79 230 7.8 0.0 0.00 0.00 0.00 47
20260904183103 77 230 8.7 0.0 0.00 0.00 0.00 53 1011.0
20260904181911 79 220 10.4 0.0 0.00 0.00 0.00 47
20260904180103 79 220 10.4 0.0 0.00 0.00 0.00 50 1010.0
20260904173103 81 250 12.2 0.0 0.00 0.00 0.00 47 1011.0
20260904171911 82 250 12.2 0.0 0.00 0.00 0.00 42
20260904163103 82 230 13.9 0.0 0.00 0.00 0.00 45 1010.0
20260904162157 82 230 13.9 0.0 0.00 0.00 0.00 42
20260904153103 82 230 14.8 0.0 0.00 0.00 0.00 48 1011.0
20260904151929 82 220 17.4 0.0 0.00 0.00 0.00 45
20260904143102 81 220 15.6 0.0 0.00 0.00 0.00 51 1011.0
20260904141911 81 240 15.6 0.0 0.00 0.00 0.00 47
20260904133102 81 250 15.6 0.0 0.00 0.00 0.00 51 1012.0
20260904132129 81 250 15.6 25.2 0.00 0.00 0.00 47
20260904130211 81 250 17.4 0.0 0.00 0.00 0.00 47 1013.0
20260904123102 81 230 15.6 26.1 0.00 0.00 0.00 51 1013.0
20260904121855 77 240 15.6 0.0 0.00 0.00 0.00 53
20260904120104 77 250 17.4 0.0 0.00 0.00 0.00 57 1014.0
20260904113102 77 240 14.8 0.0 0.00 0.00 0.00 57 1014.0
20260904111856 77 240 19.1 0.0 0.00 0.00 0.00 53
20260904103103 75 240 19.1 0.0 0.00 0.00 0.00 60 1015.0
20260904102312 75 250 19.1 0.0 0.00 0.00 0.00 57
20260904100103 75 250 19.1 0.0 0.00 0.00 0.00 60 1015.0
20260904093103 75 220 13.9 0.0 0.00 0.00 0.00 60 1016.0
20260904091912 73 230 15.6 0.0 0.00 0.00 0.00 60
20260904090103 73 230 13.9 0.0 0.00 0.00 0.00 64 1016.0
20260904083103 72 230 13.0 0.0 0.00 0.00 0.00 68 1016.0
20260904081911 70 230 10.4 0.0 0.00 0.00 0.00 68
20260904073102 68 210 10.4 0.0 0.00 0.00 0.00 72 1017.0
20260904072112 68 220 12.2 0.0 0.00 0.00 0.00 68
20260904063102 66 210 11.3 0.0 0.00 0.00 0.00 72 1017.0
20260904061856 64 220 10.4 0.0 0.00 0.00 0.00 77
20260904060104 64 220 8.7 0.0 0.00 0.00 0.00 82 1017.0
20260904054302 64 220 11.3 0.0 0.00 0.00 0.00 77 1017.0
20260904053103 64 210 10.4 0.0 0.00 0.00 0.00 77 1017.0
20260904051856 64 210 7.8 0.0 0.00 0.00 0.00 72
20260904043102 63 210 7.8 0.0 0.00 0.00 0.00 82 1017.0
20260904042257 63 200 7.8 0.0 0.00 0.00 0.00 77
20260904040103 63 200 7.8 0.0 0.00 0.00 0.00 82 1017.0
20260904033102 63 200 7.8 0.0 0.00 0.00 0.00 82 1017.0
20260904030103 64 210 7.8 0.0 0.00 0.00 0.00 77 1018.0
20260904023103 63 210 7.0 0.0 0.00 0.00 0.00 82 1018.0
20260904021856 64 210 7.8 0.0 0.00 0.00 0.00 77
20260904013103 64 230 7.8 0.0 0.00 0.00 0.00 77 1018.0
20260904012156 64 230 7.8 0.0 0.00 0.00 0.00 72
20260904010104 64 230 7.0 0.0 0.00 0.00 0.00 77 1018.0
20260904003103 64 210 7.0 0.0 0.00 0.00 0.00 77 1018.0
20260904001856 64 210 10.4 0.0 0.00 0.00 0.00 77
20260904000103 64 210 10.4 0.0 0.00 0.00 0.00 77 1018.0
20260903233103 64 210 8.7 0.0 0.00 0.00 0.00 77 1019.0
20260903231856 64 210 10.4 0.0 0.00 0.00 0.00 77
20260903223102 64 210 8.7 0.0 0.00 0.00 0.00 77 1018.0
20260903222257 66 220 10.4 0.0 0.00 0.00 0.00 68
20260903213102 64 230 8.7 0.0 0.00 0.00 0.00 77 1019.0
20260903211857 66 230 10.4 0.0 0.00 0.00 0.00 68